Cherokee, IA

12:22 AM CDT on August 20, 2017 (GMT -0500)
Cherokee Municipal

Weather History for KCKP - October, 2012

Change the Weather History Date:

Thursday, October 4, 2012

  Actual Average Record
Temperature  
Mean Temperature 45 °F -  
Max Temperature 54 °F 67 °F 87 °F (2011)
Min Temperature 35 °F 39 °F 25 °F (1968)
Degree Days  
Heating Degree Days 20    
Moisture  
Dew Point 32 °F    
Average Humidity 57    
Maximum Humidity 76    
Minimum Humidity 36    
Precipitation  
Precipitation 0.00 in - - ()
Sea Level Pressure  
Sea Level Pressure 30.16 in    
Wind  
Wind Speed 14 mph (NW)    
Max Wind Speed 24 mph    
Max Gust Speed 34 mph    
Visibility 10 miles    
Events      
Averages and records for this station are not official NWS values.
T = Trace of Precipitation, MM = Missing Value Source: NWS Daily Summary

Daily Weather History Graph

Daily Weather History Graph

Search for Another Location

Airport or City:

Trip Planner

Search our weather history database for the weather conditions in past years. The results will help you decide how hot, cold, wet, or windy it might be!

Date:

Astronomy

Oct. 04, 2012 Rise Set
Actual Time 7:23 AM CDT 6:57 PM CDT
Civil Twilight 6:55 AM CDT 7:25 PM CDT
Nautical Twilight 6:22 AM CDT 7:58 PM CDT
Astronomical Twilight 5:49 AM CDT 8:31 PM CDT
Moon 9:27 PM CDT (10/4) 11:47 AM CDT (10/4)
Length of Visible Light 12h 30m
Length of Day
11h 34m
Waning Gibbous, 82% of the Moon is Illuminated
Oct 4
Waning Gibbous
Oct 8
Last Quarter
Oct 15
New
Oct 21
First Quarter
Oct 29
Full

Hourly Weather History & Observations

Time (CDT) Temp. Windchill Dew Point Humidity Pressure Visibility Wind Dir Wind Speed Gust Speed Precip Events Conditions
12:15 AM 55.4 °F - 37.6 °F 51% 29.92 in 7.0 mi WNW 15.0 mph 21.9 mph N/A   Scattered Clouds
12:35 AM 53.2 °F - 37.8 °F 56% 29.94 in 10.0 mi West 19.6 mph 24.2 mph N/A   Clear
12:55 AM 51.3 °F - 38.5 °F 62% 29.94 in 10.0 mi NW 8.1 mph 19.6 mph N/A   Clear
1:15 AM 50.5 °F - 39.2 °F 65% 29.96 in 10.0 mi West 16.1 mph 20.7 mph N/A   Clear
1:35 AM 50.0 °F - 38.8 °F 66% 29.97 in 10.0 mi West 17.3 mph 27.6 mph N/A   Clear
1:55 AM 49.5 °F - 38.8 °F 67% 29.97 in 10.0 mi WNW 13.8 mph 21.9 mph N/A   Clear
2:15 AM 49.6 °F - 39.2 °F 67% 29.99 in 10.0 mi WNW 13.8 mph 25.3 mph N/A   Scattered Clouds
2:35 AM 49.1 °F - 38.7 °F 67% 29.98 in 7.0 mi WNW 17.3 mph 34.5 mph N/A   Scattered Clouds
2:55 AM 48.2 °F - 38.5 °F 69% 29.98 in 10.0 mi WNW 24.2 mph 33.4 mph N/A   Scattered Clouds
3:15 AM 47.8 °F - 39.0 °F 71% 30.00 in 10.0 mi WNW 16.1 mph 26.5 mph N/A   Clear
3:35 AM 47.3 °F - 38.1 °F 70% 29.99 in 10.0 mi WNW 19.6 mph 34.5 mph N/A   Clear
4:15 AM 46.8 °F - 37.4 °F 70% 30.03 in 10.0 mi NW 21.9 mph 31.1 mph N/A   Overcast
4:35 AM 46.8 °F - 37.9 °F 71% 30.04 in 10.0 mi WNW 17.3 mph 29.9 mph N/A   Overcast
4:55 AM 46.0 °F 39.0 °F 36.7 °F 70% 30.05 in 10.0 mi WNW 17.3 mph 27.6 mph N/A   Scattered Clouds
5:15 AM 44.8 °F 37.4 °F 36.1 °F 72% 30.08 in 10.0 mi WNW 17.3 mph 25.3 mph N/A   Clear
5:55 AM 42.8 °F 38.0 °F 35.6 °F 76% 30.08 in 10.0 mi WNW 8.1 mph - N/A   Scattered Clouds
6:15 AM 42.8 °F 35.8 °F 34.7 °F 73% 30.09 in 10.0 mi NW 13.8 mph 23.0 mph N/A   Clear
6:35 AM 42.8 °F 35.1 °F 34.0 °F 71% 30.10 in 10.0 mi WNW 16.1 mph 21.9 mph N/A   Clear
6:55 AM 42.4 °F 35.7 °F 33.8 °F 71% 30.11 in 10.0 mi WNW 12.7 mph 20.7 mph N/A   Scattered Clouds
7:15 AM 42.4 °F 35.7 °F 33.8 °F 71% 30.13 in 10.0 mi WNW 12.7 mph 21.9 mph N/A   Mostly Cloudy
7:35 AM 42.3 °F 34.4 °F 34.2 °F 73% 30.14 in 10.0 mi WNW 16.1 mph 23.0 mph N/A   Overcast
7:55 AM 42.1 °F 35.2 °F 34.9 °F 76% 30.13 in 10.0 mi WNW 12.7 mph 20.7 mph N/A   Overcast
8:15 AM 42.3 °F 34.1 °F 34.3 °F 74% 30.14 in 10.0 mi NW 17.3 mph 23.0 mph N/A   Overcast
8:35 AM 42.3 °F 34.8 °F 33.8 °F 72% 30.14 in 10.0 mi NW 15.0 mph 24.2 mph N/A   Overcast
8:55 AM 42.8 °F 35.1 °F 32.5 °F 67% 30.15 in 10.0 mi NW 16.1 mph 24.2 mph N/A   Overcast
9:15 AM 42.8 °F 35.4 °F 32.5 °F 67% 30.15 in 10.0 mi NW 15.0 mph 26.5 mph N/A   Overcast
9:35 AM 43.7 °F 35.4 °F 32.2 °F 64% 30.16 in 10.0 mi WNW 19.6 mph 26.5 mph N/A   Overcast
9:55 AM 44.1 °F 36.5 °F 32.0 °F 63% 30.17 in 10.0 mi NW 17.3 mph 24.2 mph N/A   Overcast
10:15 AM 45.5 °F 38.6 °F 32.0 °F 59% 30.17 in 10.0 mi NW 16.1 mph 25.3 mph N/A   Overcast
10:35 AM 46.6 °F - 32.0 °F 57% 30.17 in 10.0 mi NW 19.6 mph 27.6 mph N/A   Mostly Cloudy
10:55 AM 46.9 °F - 31.1 °F 54% 30.18 in 10.0 mi WNW 18.4 mph 28.8 mph N/A   Mostly Cloudy
11:15 AM 48.0 °F - 31.3 °F 52% 30.19 in 10.0 mi NNW 13.8 mph 28.8 mph N/A   Mostly Cloudy
11:35 AM 48.7 °F - 30.7 °F 50% 30.19 in 10.0 mi NW 16.1 mph 31.1 mph N/A   Mostly Cloudy
11:55 AM 50.0 °F - 30.9 °F 48% 30.20 in 10.0 mi NW 15.0 mph 26.5 mph N/A   Scattered Clouds
12:15 PM 50.7 °F - 30.4 °F 46% 30.20 in 10.0 mi NW 17.3 mph 27.6 mph N/A   Scattered Clouds
12:35 PM 51.1 °F - 30.2 °F 45% 30.20 in 10.0 mi NW 16.1 mph 29.9 mph N/A   Clear
12:55 PM 50.9 °F - 30.2 °F 45% 30.21 in 10.0 mi NW 16.1 mph 28.8 mph N/A   Clear
1:35 PM 51.1 °F - 29.7 °F 44% 30.22 in 10.0 mi NW 12.7 mph 26.5 mph N/A   Scattered Clouds
1:55 PM 52.9 °F - 29.7 °F 41% 30.22 in 10.0 mi WNW 19.6 mph 29.9 mph N/A   Mostly Cloudy
2:15 PM 52.2 °F - 29.1 °F 41% 30.22 in 10.0 mi NW 11.5 mph 21.9 mph N/A   Scattered Clouds
2:35 PM 52.7 °F - 28.9 °F 40% 30.22 in 10.0 mi WNW 17.3 mph 24.2 mph N/A   Scattered Clouds
2:55 PM 53.6 °F - 28.6 °F 38% 30.22 in 10.0 mi WNW 18.4 mph 27.6 mph N/A   Clear
3:15 PM 53.8 °F - 28.6 °F 38% 30.22 in 10.0 mi NNW 16.1 mph 23.0 mph N/A   Clear
3:35 PM 53.4 °F - 28.2 °F 38% 30.22 in 10.0 mi NW 15.0 mph 24.2 mph N/A   Clear
3:55 PM 52.7 °F - 28.0 °F 39% 30.22 in 10.0 mi NNW 16.1 mph 24.2 mph N/A   Clear
4:15 PM 53.8 °F - 27.9 °F 37% 30.22 in 10.0 mi NW 13.8 mph 21.9 mph N/A   Clear
4:35 PM 53.8 °F - 27.5 °F 36% 30.22 in 10.0 mi NW 12.7 mph 18.4 mph N/A   Clear
4:55 PM 53.4 °F - 27.5 °F 37% 30.22 in 10.0 mi NW 10.4 mph 16.1 mph N/A   Clear
5:15 PM 52.9 °F - 27.5 °F 38% 30.23 in 10.0 mi NW 9.2 mph 25.3 mph N/A   Clear
5:35 PM 51.8 °F - 27.7 °F 39% 30.23 in 10.0 mi NW 13.8 mph 20.7 mph N/A   Clear
5:55 PM 50.9 °F - 28.0 °F 41% 30.24 in 10.0 mi NW 16.1 mph 21.9 mph N/A   Clear
6:15 PM 49.3 °F - 27.9 °F 44% 30.25 in 10.0 mi NNW 8.1 mph - N/A   Clear
6:35 PM 48.6 °F - 28.0 °F 45% 30.25 in 10.0 mi NW 8.1 mph - N/A   Clear
6:55 PM 47.5 °F - 28.0 °F 47% 30.25 in 10.0 mi NNW 9.2 mph - N/A   Clear
7:15 PM 46.4 °F 42.9 °F 28.2 °F 49% 30.25 in 10.0 mi NNW 6.9 mph - N/A   Clear
7:35 PM 45.5 °F 40.8 °F 27.9 °F 50% 30.26 in 10.0 mi NNW 9.2 mph - N/A   Clear
7:55 PM 44.1 °F 39.5 °F 28.0 °F 53% 30.26 in 10.0 mi North 8.1 mph - N/A   Clear
8:15 PM 43.3 °F 38.1 °F 28.2 °F 55% 30.26 in 10.0 mi NNW 9.2 mph - N/A   Clear
8:35 PM 42.8 °F 37.5 °F 28.4 °F 57% 30.27 in 10.0 mi NNW 9.2 mph - N/A   Clear
8:55 PM 41.9 °F 37.5 °F 28.2 °F 58% 30.27 in 10.0 mi NNW 6.9 mph - N/A   Clear
9:15 PM 41.0 °F 36.4 °F 28.0 °F 60% 30.28 in 10.0 mi NNW 6.9 mph - N/A   Clear
9:35 PM 39.9 °F 34.5 °F 27.7 °F 62% 30.28 in 10.0 mi NNW 8.1 mph - N/A   Clear
9:55 PM 39.4 °F 36.1 °F 27.5 °F 62% 30.28 in 10.0 mi NNW 4.6 mph - N/A   Clear
10:15 PM 38.5 °F 36.1 °F 27.1 °F 64% 30.28 in 10.0 mi NW 3.5 mph - N/A   Clear
10:35 PM 37.8 °F - 27.1 °F 66% 30.28 in 10.0 mi Calm Calm - N/A   Clear
10:55 PM 36.7 °F - 26.1 °F 65% 30.29 in 10.0 mi Calm Calm - N/A   Clear
11:15 PM 35.1 °F - 26.8 °F 72% 30.29 in 10.0 mi Calm Calm - N/A   Clear
11:35 PM 35.4 °F - 25.9 °F 68% 30.30 in 10.0 mi Calm Calm - N/A   Clear
11:55 PM 36.5 °F 33.9 °F 26.4 °F 67% 30.29 in 10.0 mi WNW 3.5 mph - N/A   Clear